Elmendorf AFB, AK

10:28 AM AKDT on June 19, 2018 (GMT -0800)
Elmendorf Air Force Base

Weather History for PAED - November, 2014

Change the Weather History Date:

Thursday, November 13, 2014

  Actual Average Record
Temperature  
Mean Temperature 30 °F -  
Max Temperature 36 °F 27 °F 51 °F (1967)
Min Temperature 23 °F 14 °F -4 °F (1975)
Degree Days  
Heating Degree Days 36    
Moisture  
Dew Point 25 °F    
Average Humidity 85    
Maximum Humidity 94    
Minimum Humidity 68    
Precipitation  
Precipitation 0.00 in - - ()
Sea Level Pressure  
Sea Level Pressure 30.09 in    
Wind  
Wind Speed 2 mph (ENE)    
Max Wind Speed 7 mph    
Max Gust Speed -    
Visibility 10 miles    
Events      
Averages and records for this station are not official NWS values.
T = Trace of Precipitation, MM = Missing Value Source: NWS Daily Summary

Daily Weather History Graph

Daily Weather History Graph

Search for Another Location

Airport or City:

Astronomy

Nov. 13, 2014 Rise Set
Actual Time 9:00 AM AKST 4:25 PM AKST
Civil Twilight 8:09 AM AKST 5:16 PM AKST
Nautical Twilight 7:15 AM AKST 6:10 PM AKST
Astronomical Twilight 6:24 AM AKST 7:01 PM AKST
Moon 11:23 PM AKST (11/13) 1:59 PM AKST (11/13)
Length of Visible Light 9h 07m
Length of Day
7h 25m
Waning Gibbous, 57% of the Moon is Illuminated
Nov 13
Waning Gibbous
Nov 14
Last Quarter
Nov 22
New
Nov 29
First Quarter
Dec 6
Full

Hourly Weather History & Observations

Time (AKST) Temp. Windchill Dew Point Humidity Pressure Visibility Wind Dir Wind Speed Gust Speed Precip Events Conditions
12:58 AM 34.5 °F - 29.5 °F 82% 30.11 in 10.0 mi Calm Calm - N/A   Clear
1:58 AM 31.8 °F - 28.0 °F 86% 30.11 in 10.0 mi Calm Calm - N/A   Clear
2:58 AM 28.8 °F 23.7 °F 26.2 °F 90% 30.09 in 10.0 mi East 4.6 mph - N/A   Clear
3:58 AM 28.8 °F - 26.6 °F 92% 30.09 in 10.0 mi Calm Calm - N/A   Partly Cloudy
4:58 AM 28.2 °F 21.0 °F 26.4 °F 93% 30.06 in 10.0 mi Variable 6.9 mph - N/A   Clear
5:58 AM 28.0 °F - 25.5 °F 90% 30.06 in 10.0 mi Calm Calm - N/A   Clear
6:58 AM 25.7 °F - 23.7 °F 92% 30.06 in 10.0 mi NE 1.2 mph - N/A   Clear
7:58 AM 27.3 °F - 24.8 °F 90% 30.08 in 10.0 mi ENE 1.2 mph - N/A   Clear
8:58 AM 27.1 °F 21.8 °F 23.9 °F 88% 30.09 in 10.0 mi ESE 4.6 mph - N/A   Clear
9:58 AM 29.7 °F - 25.5 °F 85% 30.09 in 10.0 mi Calm Calm - N/A   Clear
10:58 AM 28.2 °F - 25.2 °F 88% 30.12 in 10.0 mi Calm Calm - N/A   Clear
11:58 AM 31.3 °F - 27.1 °F 85% 30.13 in 10.0 mi NE 1.2 mph - N/A   Clear
12:58 PM 31.6 °F - 27.7 °F 85% 30.12 in 10.0 mi Calm Calm - N/A   Clear
1:58 PM 35.4 °F 29.7 °F 26.1 °F 69% 30.11 in 10.0 mi NE 6.9 mph - N/A   Clear
2:58 PM 36.3 °F 31.6 °F 26.6 °F 68% 30.11 in 10.0 mi East 5.8 mph - N/A   Clear
3:58 PM 36.0 °F 31.1 °F 27.3 °F 71% 30.09 in 10.0 mi ENE 5.8 mph - N/A   Clear
4:58 PM 35.8 °F 30.1 °F 27.5 °F 72% 30.09 in 10.0 mi NE 6.9 mph - N/A   Clear
5:58 PM 34.2 °F - 26.2 °F 73% 30.09 in 10.0 mi Variable 1.2 mph - N/A   Clear
6:58 PM 29.1 °F - 24.8 °F 84% 30.09 in 10.0 mi Calm Calm - N/A   Clear
7:58 PM 27.5 °F - 24.1 °F 87% 30.09 in 10.0 mi Calm Calm - N/A   Clear
8:58 PM 23.2 °F - 21.2 °F 92% 30.09 in 10.0 mi Calm Calm - N/A   Clear
9:58 PM 24.3 °F - 21.9 °F 91% 30.09 in 10.0 mi Calm Calm - N/A   Clear
10:58 PM 23.0 °F 15.8 °F 21.4 °F 94% 30.09 in 10.0 mi NE 5.8 mph - N/A   Clear
11:58 PM 23.4 °F 16.2 °F 20.7 °F 89% 30.10 in 10.0 mi East 5.8 mph - N/A   Clear